Regional Weather Roundup
Issued by NWS

Home | Current Version | Previous Version | Text Only | Print | Product List | Glossary Off
Versions: 1 2 3 4 5 6 7 8 9 10 11 12 13 14 15 16 17 18 19 20 21 22 23 24 25 26 27

000
ASUS45 KGTF 240410
RWRMT
MONTANA HOURLY WEATHER ROUNDUP
NATIONAL WEATHER SERVICE GREAT FALLS MT
1000 PM MDT THU APR 23 2015

NOTE: "FAIR" INDICATES FEW OR NO CLOUDS BELOW 12000 FEET WITH NO
SIGNIFICANT WEATHER AND/OR OBSTRUCTIONS TO VISIBILITY.

MTZ001>007-043-240500-
WEST OF THE DIVIDE

CITY           SKY/WX    TMP DP  RH WIND       PRES   REMARKS
KALISPELL      CLOUDY    48  29  47 CALM      29.69S
MISSOULA       CLOUDY    52  28  39 NW9       29.71R
BUTTE          CLOUDY    50  22  33 W7        29.69R
DEER LODGE       N/A     52  25  35 NW6       29.72R
EUREKA           N/A     46  30  53 CALM      29.72F
HAMILTON         N/A     52  30  43 NE3       29.67S
LIBBY            N/A     43  30  61 CALM      29.72S
$$

MTZ008-052>055-240500-
SOUTHWEST MONTANA

CITY           SKY/WX    TMP DP  RH WIND       PRES   REMARKS
BOZEMAN        MOCLDY    48  37  65 SE8       29.65R
DILLON         CLOUDY    56  24  29 NE9       29.66R
$$

MTZ009-010-012-014-046-048-049-054-240500-
EAST SLOPES AND CENTRAL MONTANA

CITY           SKY/WX    TMP DP  RH WIND       PRES   REMARKS
CUT BANK       CLOUDY    47  24  40 W15       29.64F
GREAT FALLS    CLOUDY    53  21  28 NW10      29.63R
MALMSTROM AFB  CLOUDY    54  22  28 NW8       29.63S
HELENA         CLOUDY    55  26  32 CALM      29.66R
$$

MTZ011-013-016-021-045-047-050-051-240500-
NORTH CENTRAL MONTANA

CITY           SKY/WX    TMP DP  RH WIND       PRES   REMARKS
HAVRE          CLOUDY    51  36  56 SE8       29.62S
LEWISTOWN      CLOUDY    52  36  54 SE7       29.66R
CHINOOK          N/A     54  37  54 E7        29.63S
FORT BENTON      N/A     52  28  40 N6        29.62S
$$

MTZ017>020-022>042-056>058-061-062-240500-
EASTERN PLAINS

CITY           SKY/WX    TMP DP  RH WIND       PRES   REMARKS
BAKER          PTCLDY    45  33  63 SE7       29.68S
BILLINGS       MOCLDY    56  42  59 SE8       29.65S
GLASGOW        CLEAR     45  33  63 E9        29.67R
JORDAN           N/A     47  34  60 E5        29.67R
LIVINGSTON     PTCLDY    49  37  63 NW9       29.65R
MILES CITY     PTCLDY    55  34  45 SE5       29.66R
SIDNEY         CLEAR     43  32  65 N8        29.71S
WOLF POINT     CLEAR     42  34  73 NE8       29.70R
FORSYTH          N/A     48  36  61 SE5       29.64F
POPLAR           N/A     39  34  81 NE10      29.71S
$$

REGIONAL REPORTS...DAKOTAS

CITY           SKY/WX    TMP DP  RH WIND       PRES   REMARKS
WILLISTON      CLEAR     38  33  82 E6        29.73F
MINOT          CLOUDY    39  31  72 E8        29.78F
DICKINSON      PTCLDY    46  24  42 E16       29.67F
BEACH          FAIR      39  30  70 SE5       29.69S
CROSBY         FAIR      37  32  81 SE3       29.77S
WATFORD CITY   FAIR      37  34  87 NE7       29.71S
BISMARCK       CLOUDY    48  20  32 E14       29.77R
GRAND FORKS    CLOUDY    44  15  31 E8        29.93S
FARGO          CLOUDY    46  13  26 E10       29.90F
BUFFALO SD       N/A     49  33  54 NE10      29.60F
RAPID CITY     CLOUDY    57  47  69 N7        29.64R
$$

REGIONAL REPORTS...WYOMING/IDAHO/WASHINGTON

CITY           SKY/WX    TMP DP  RH WIND       PRES   REMARKS
GILLETTE       CLOUDY    45  39  79 W6        29.71R
SHERIDAN       CLOUDY    49  45  86 CALM      29.69F
BUFFALO WY     CLOUDY    48  41  76 S9        29.73S
CODY           PTCLDY    46  41  81 S7        29.71S
YELLOWSTONE LA   N/A     28  22  78 CALM      29.84R
IDAHO FALLS    CLEAR     52  16  24 S12       29.73R
SALMON         CLOUDY    61  27  27 N10       29.63S
BOISE          CLOUDY    60  27  28 S5        29.67S
SPOKANE        CLOUDY    45  34  65 S5        29.73S
$$

REGIONAL REPORTS...ALBERTA

CITY           SKY/WX    TMP DP  RH WIND       PRES   REMARKS
EDMONTON       CLEAR     36  32  87 NW5       29.68R
CALGARY        PTCLDY    43  21  42 VRB2      29.60R
LETHBRIDGE     MOCLDY    43  28  56 W12       29.62S
MEDICINE HAT   CLOUDY    55  25  30 VRB2      29.62S
$$

REGIONAL REPORTS...SASKATCHEWAN

CITY           SKY/WX    TMP DP  RH WIND       PRES   REMARKS
SWIFT CURRENT  MOCLDY    45  37  76 SE7       29.64S
REGINA         MOCLDY    37  28  70 SE12      29.75S WCI  30
SASKATOON      CLOUDY    43  36  75 SE7       29.71R
$$



USA.gov is the U.S. government's official web portal to all federal, state and local government web resources and services.